Voltar ao catálogo

STARLINK-5423

AtivoComunicaçõesVLEO
NORAD 55670·PAYLOAD·🇺🇸 United States

Lançado Feb 17, 2023 de Vandenberg Space Force Base

Loading…

Próximas Passagens (próximas 24 horas)

TLE

AtualizadoSource: CelesTrak SupGP

Época: Sep 15, 2026, 02:27 UTC

1 55670C 23021AU  26258.10256944 -.00039973  00000+0 -33505-2 0  2583
2 55670  70.0021  46.8122 0003028 268.1410 263.0148 14.98343458    17

Acompanhe STARLINK-5423 em tempo real com AllMySat

Download on the App Store